World > North America > United States > Texas > Relampago  

Relampago, TX Hourly Weather Updates

Feedback E-mail the Weather

Quick Clicks

Relampago, TX Weather Maps

°F °C°F °C
Relampago Weather Map
UTC Time: 4/16/2024, 22:42
Your Time:

Relampago, TX Regional Weather

Expires:202404162300;;863426
ASUS44 KSJT 162210
RWRSJT
WEST CENTRAL TEXAS REGIONAL WEATHER ROUNDUP
NATIONAL WEATHER SERVICE SAN ANGELO TX
500 PM CDT TUE APR 16 2024

NOTE: "FAIR" INDICATES FEW OR NO CLOUDS BELOW 12,000 FEET WITH NO
SIGNIFICANT WEATHER AND/OR OBSTRUCTIONS TO VISIBILITY.


TXZ229-232-234-239-242-243-245-247-249-250-
253-255-257-343-347-443-162300-
TEXAS COASTAL BEND, RIO GRANDE PLAINS DEEP SOUTH TEXAS
  
CITY           SKY/WX    TMP DP  RH WIND       PRES   REMARKS
VICTORIA       CLOUDY    78  71  79 E17       29.83F TC  26           
BEEVILLE       PTSUNNY   81  68  64 SE13G20   29.80F TC  27           
ROCKPORT       PTSUNNY   79  72  79 SE14G23   29.82R TC  26           
PORT ARANSAS   PTSUNNY   78  72  81 E14       29.83F TC  26           
PORT LAVACA    CLOUDY    81  74  78 SE16      29.84S TC  27           
CORPUS CHRISTI CLOUDY    83  73  72 SE18      29.80F TC  28           
KINGSVILLE NAS NOT AVBL                                               
COTULLA        CLOUDY    83  72  69 N6        29.79F TC  28           
LAREDO         CLOUDY    88  69  53 NE9       29.77F TC  31           
BROWNSVILLE    PTSUNNY   86  73  65 SE16G26   29.77F TC  30           
PORT ISABEL    CLOUDY    81  73  76 E17G24    29.78F TC  27           
HEBBRONVILLE   PTSUNNY   91  67  45 E8        29.78F TC  33           
MCALLEN        CLOUDY    89  72  56 E12       29.75S TC  32           
WESLACO        NOT AVBL                                          

SKY/WX - Weather  TMP - Temperature  DP - Dew Point  RH - Humidity
WIND - Wind Direction/Speed PRES - Barometric Pressure VSB - Visibility
WCI - Wind Chill Index E13G22 Wind - East Wind 13 mph/Gusts of 22 mph

Trending Headlines

Trending Entertainment Headlines

Relampago Radar Loop

Use the map search tool if you want to place a location marker on the radar map...

Relampago Quick Facts

National Two Day Weather Forecast


E-mail the Relampago Weather Forecast

Voice your opinion or tell us about page issues...